Temperature
2 2 2 2 2 2 2 2 2 3 3 3 3 2 3 3 3 3 3 3 3 3 3 3 2 2 2 2 2 2 2 2 2 2 2 2 2 2 2 2 2 2 2 2
1 2 2 2 2 2 2 2 2 2 2 2 2 3 2 2 2 2 2 3 3 2 2 2 2 2 2 2 2 1 1 1 1 1 1 1 1 1 1 1 1 1 1 1
1 1 2 2 2 2 1 1 1 2 3 2 1 1 2 2 2 2 2 2 2 2 2 2 2 2 1 1 1 1 1 1 1 1 1 0 0 0 0 1 1 1 1 1
-0 0 1 3 2 1 1 1 1 1 1 1 1 2 2 2 2 2 2 2 2 2 2 2 1 1 1 1 1 1 1 0 0 0 0 -0 -0 -0 -0 0 0 0 0 0
-1 -0 1 2 2 1 1 1 1 0 1 1 1 1 1 2 2 2 2 2 2 2 1 1 1 1 1 1 0 0 0 0 -0 -0 -0 -0 -0 -0 -0 -0 -0 0 0 0
-1 -0 1 3 2 1 1 1 1 1 0 0 0 -0 0 2 1 2 1 1 1 1 1 1 1 1 0 0 0 -0 -0 -0 -0 -1 -1 -1 -1 -1 -1 -1 -0 -0 -0 -0
-2 -1 0 1 1 1 2 2 2 1 1 1 -0 0 1 1 1 1 1 1 1 1 1 1 0 0 -0 -0 -0 -0 -0 -1 -1 -1 -1 -1 -1 -1 -1 -1 -1 -1 -0 -0
-2 -1 1 1 -0 0 1 2 2 2 2 1 1 1 1 1 1 1 0 0 0 0 0 0 -0 -0 -0 -0 -1 -1 -1 -1 -1 -1 -1 -1 -1 -1 -1 -1 -1 -1 -1 -1
-1 1 1 1 1 2 2 2 2 2 1 1 1 1 0 0 0 -0 -0 -0 -0 -0 -0 -0 -1 -1 -1 -1 -1 -1 -1 -2 -1 -1 -1 -1 -1 -1 -1 -2 -2 -2 -2 -2
-2 -1 -0 1 2 2 2 2 2 1 1 1 1 0 -0 -0 -0 -0 -1 -1 -1 -1 -1 -1 -1 -1 -1 -2 -2 -2 -2 -2 -2 -2 -1 -1 -2 -2 -2 -2 -2 -2 -2 -2
-2 -2 -1 1 2 2 2 2 1 1 1 0 0 -0 -0 -1 -1 -1 -1 -1 -1 -1 -1 -1 -1 -1 -2 -2 -2 -2 -2 -2 -2 -2 -2 -2 -2 -2 -2 -2 -3 -3 -3 -3
-1 0 -1 1 2 2 1 1 1 1 0 -0 -0 -0 -1 -1 -1 -1 -1 -1 -1 -2 -2 -2 -2 -2 -2 -2 -2 -2 -2 -2 -2 -3 -3 -3 -3 -2 -2 -3 -3 -3 -3 -3
1 2 1 2 1 1 1 0 0 0 -0 -0 -1 -1 -1 -1 -1 -2 -2 -2 -2 -2 -2 -2 -2 -2 -2 -2 -3 -3 -3 -3 -3 -3 -3 -3 -3 -3 -3 -3 -3 -3 -3 -4
1 1 0 1 1 1 0 0 -0 -0 -1 -1 -1 -1 -1 -2 -2 -2 -2 -2 -2 -2 -2 -2 -3 -2 -3 -3 -3 -3 -3 -3 -3 -3 -3 -4 -4 -4 -4 -4 -4 -4 -4 -4
1 1 1 1 0 0 -0 -0 -1 -1 -1 -1 -1 -2 -2 -2 -2 -2 -2 -2 -2 -3 -3 -3 -3 -3 -3 -3 -3 -4 -4 -4 -4 -4 -4 -4 -4 -4 -4 -4 -4 -4 -4 -4
0 0 0 0 0 -0 -0 -1 -1 -1 -1 -1 -2 -2 -2 -2 -2 -3 -3 -3 -3 -3 -3 -3 -3 -3 -3 -3 -4 -4 -4 -4 -4 -4 -4 -4 -5 -5 -5 -5 -5 -5 -5 -5
-1 -1 -1 -1 -1 -1 -1 -1 -1 -1 -1 -2 -2 -2 -3 -3 -3 -3 -3 -3 -3 -3 -3 -3 -3 -3 -4 -4 -4 -4 -4 -4 -5 -5 -5 -5 -5 -5 -5 -5 -5 -5 -5 -5
-1 -1 -1 -0 -1 -1 -1 -1 -1 -2 -2 -2 -2 -2 -3 -3 -3 -3 -3 -3 -3 -3 -3 -4 -4 -4 -4 -4 -4 -4 -4 -5 -5 -5 -5 -5 -5 -5 -5 -5 -5 -5 -5 -5
-1 -1 -1 -1 -1 -1 -1 -1 -2 -2 -2 -2 -2 -3 -3 -3 -3 -3 -3 -3 -4 -4 -4 -4 -4 -4 -4 -4 -4 -5 -5 -5 -5 -5 -5 -5 -6 -6 -6 -6 -6 -6 -6 -6
-1 -1 -1 -1 -1 -1 -1 -1 -2 -2 -2 -2 -3 -3 -3 -3 -4 -4 -4 -4 -4 -4 -4 -4 -4 -4 -5 -5 -5 -5 -5 -5 -6 -6 -6 -6 -6 -6 -6 -6 -6 -6 -6 -6
-1 -1 -1 -1 -1 -2 -2 -2 -2 -2 -2 -3 -3 -3 -3 -4 -4 -4 -4 -4 -4 -4 -4 -4 -5 -5 -5 -5 -5 -5 -6 -6 -6 -6 -6 -6 -6 -6 -6 -6 -6 -6 -6 -6
-2 -2 -2 -2 -2 -2 -2 -3 -3 -3 -3 -3 -3 -4 -4 -4 -4 -4 -4 -4 -4 -5 -5 -5 -5 -5 -5 -6 -6 -6 -6 -6 -6 -6 -6 -6 -6 -6 -6 -6 -6 -6 -6 -6
-2 -2 -2 -2 -3 -3 -3 -3 -3 -3 -4 -4 -4 -4 -4 -4 -5 -5 -4 -5 -5 -5 -5 -5 -5 -6 -6 -6 -6 -6 -6 -7 -7 -6 -6 -7 -7 -7 -7 -7 -7 -7 -7 -6
-2 -3 -3 -3 -3 -3 -3 -3 -4 -4 -4 -4 -4 -5 -5 -5 -5 -5 -5 -5 -5 -5 -5 -6 -6 -6 -6 -6 -6 -7 -7 -7 -7 -7 -7 -7 -7 -7 -7 -7 -7 -7 -7 -7
-3 -3 -3 -4 -4 -4 -4 -4 -4 -4 -4 -5 -5 -5 -5 -5 -5 -5 -5 -6 -6 -6 -6 -6 -6 -6 -6 -7 -7 -7 -7 -7 -7 -7 -7 -7 -7 -7 -7 -7 -7 -7 -7 -7
-4 -4 -4 -4 -4 -4 -4 -5 -5 -5 -5 -5 -5 -5 -5 -6 -6 -6 -6 -6 -6 -6 -6 -6 -6 -7 -7 -7 -7 -7 -7 -7 -7 -7 -7 -7 -8 -8 -8 -8 -8 -8 -8 -7
-4 -4 -4 -4 -5 -5 -5 -5 -5 -5 -5 -5 -6 -6 -6 -6 -6 -6 -6 -6 -7 -7 -7 -7 -7 -7 -7 -7 -7 -7 -7 -7 -8 -8 -8 -8 -8 -8 -8 -8 -8 -8 -8 -8
Wind_Speed
5 5 3 6 7 7 8 9 8 9 10 11 7 6 6 5 4 2 2 3 3 4 4 3 3 3 3 3 3 2 2 3 3 3 3 3 4 4 4 4 4 4 4 5
4 3 4 6 9 9 10 9 10 9 12 8 5 3 4 4 3 3 4 4 5 4 3 3 3 3 3 3 3 2 2 3 3 3 3 3 3 4 4 4 4 4 4 5
3 4 4 7 8 9 6 7 7 10 10 5 4 5 6 4 4 4 5 5 5 4 4 4 4 4 3 3 3 3 3 4 3 3 3 3 3 4 4 4 4 4 4 5
2 2 5 7 2 5 6 7 8 7 7 5 6 6 4 3 3 4 4 4 4 4 4 4 3 3 3 2 2 3 3 4 4 3 4 3 4 4 4 4 4 4 5 5
2 3 7 6 3 4 5 6 6 7 8 5 2 3 3 3 3 4 5 5 4 4 4 3 3 2 2 2 2 3 4 4 4 4 4 4 4 5 4 4 4 4 5 5
3 3 6 6 3 2 2 5 4 5 6 4 1 2 5 2 3 3 4 3 3 3 2 2 2 1 1 2 2 3 4 4 4 4 4 4 5 4 4 4 4 4 4 4
5 5 8 6 2 3 3 6 3 4 5 4 5 6 3 3 3 3 3 3 3 2 3 3 2 2 2 2 4 4 4 3 3 4 4 4 4 3 3 3 3 4 4 4
5 5 9 3 4 5 6 3 2 3 3 4 4 4 3 3 3 3 3 3 3 2 3 3 2 1 2 4 4 3 3 3 3 3 3 3 3 3 3 3 3 3 4 4
8 8 4 4 6 5 3 3 3 3 3 3 3 3 3 3 3 3 3 3 3 2 3 3 2 1 3 4 3 2 2 3 3 3 2 2 3 3 2 2 2 3 3 3
6 8 6 6 6 4 4 4 4 4 4 3 4 4 4 3 3 3 3 3 3 2 2 3 3 2 3 3 2 2 2 3 3 3 2 2 2 2 2 3 3 3 3 3
6 8 7 6 6 6 4 3 3 3 3 4 4 4 4 3 3 3 3 3 2 2 3 4 3 3 3 2 2 2 3 3 3 2 2 2 2 2 3 3 3 3 3 3
8 7 6 7 5 4 4 4 4 3 3 3 3 4 3 3 3 3 3 3 3 3 3 4 3 3 3 3 2 2 3 3 2 2 2 2 2 3 4 4 5 5 5 4
8 5 5 6 4 3 4 4 3 3 4 3 3 3 3 3 3 3 3 3 3 4 4 3 3 3 3 3 2 2 3 3 2 2 2 2 2 2 4 5 5 5 5 5
6 4 5 5 5 4 3 3 2 2 2 3 3 2 2 3 3 3 4 4 3 3 3 3 3 4 4 3 2 3 3 3 3 2 2 2 2 2 2 3 4 4 4 5
6 7 7 4 3 3 2 2 2 3 3 3 2 2 3 3 4 5 4 3 2 2 3 3 3 4 3 3 3 3 3 2 2 2 2 2 2 2 2 3 3 3 3 4
4 3 3 4 5 4 3 3 4 5 4 3 3 3 4 4 4 4 4 2 2 3 4 3 4 4 3 2 2 2 2 4 3 2 2 2 2 2 2 3 3 3 3 3
4 5 5 5 6 6 5 6 6 5 4 4 4 4 3 3 3 4 4 4 4 4 4 4 4 4 3 2 2 2 2 3 4 2 2 2 2 2 2 2 3 3 3 4
8 8 7 7 7 7 6 5 5 5 5 5 3 3 3 4 4 5 4 4 4 4 4 4 4 3 3 2 2 2 2 2 2 2 2 2 2 2 2 2 3 3 3 4
6 6 6 6 6 6 5 5 5 4 4 3 3 4 5 5 5 4 4 3 3 5 5 4 5 3 3 3 2 2 2 2 2 2 2 3 3 2 2 2 3 3 3 3
4 4 4 4 4 4 5 5 4 4 4 4 4 4 4 5 4 4 3 4 5 4 4 3 3 3 3 3 3 2 2 2 3 3 2 2 3 3 3 3 3 3 3 3
4 4 4 4 4 4 5 4 4 5 4 4 4 5 5 5 4 3 3 4 5 3 3 4 3 3 3 3 3 2 2 2 2 2 3 3 3 3 3 3 3 3 3 3
3 3 4 3 3 3 3 3 3 4 3 4 4 4 4 4 4 4 5 5 4 4 3 3 3 4 4 3 2 2 2 3 3 3 3 3 3 3 3 3 3 3 3 3
3 4 4 4 4 3 2 2 3 3 4 4 4 4 5 4 3 3 5 3 3 4 3 3 4 5 4 2 2 2 3 3 3 3 3 3 3 3 3 3 3 3 3 3
3 3 3 2 1 2 3 3 3 3 3 4 4 4 4 3 3 4 4 5 5 5 3 4 5 4 3 1 2 2 2 3 3 3 3 3 3 3 3 3 2 2 2 3
3 3 3 2 3 3 4 3 2 2 2 2 3 3 3 3 3 3 3 3 4 4 2 3 4 3 2 1 2 2 2 3 3 3 3 3 3 2 2 2 2 2 2 2
3 3 3 4 4 3 2 2 2 2 2 2 3 2 2 2 3 3 2 3 3 3 2 2 2 2 1 2 2 2 2 3 3 2 2 2 2 2 2 2 3 2 2 2
3 2 2 2 2 3 3 3 3 3 3 3 3 3 2 2 2 2 2 2 2 2 1 1 1 1 1 1 2 2 2 2 2 2 2 2 2 2 2 3 2 2 2 2
Wind_Direction
256 264 235 242 244 227 222 221 223 242 246 259 258 256 259 262 258 266 285 285 274 272 276 276 274 271 265 265 263 261 257 260 263 265 266 272 279 276 270 260 262 259 261 264
283 268 253 268 257 236 234 237 240 256 267 262 259 271 273 266 251 264 278 274 272 274 276 268 265 269 272 267 264 252 248 256 267 272 270 275 285 285 273 266 266 262 257 259
271 308 334 275 245 222 219 218 210 236 250 261 276 264 252 247 246 255 265 273 270 262 253 254 254 254 256 259 258 241 244 258 261 263 265 268 278 283 270 262 266 265 258 256
261 5 247 247 226 196 214 240 226 241 256 251 252 263 251 226 229 262 278 279 273 266 263 264 258 260 262 254 249 246 254 260 263 267 269 264 265 269 267 263 257 254 257 259
175 244 273 281 253 195 208 262 236 235 258 266 282 315 284 241 235 250 263 266 262 261 260 258 260 261 260 258 254 256 261 258 262 260 260 258 262 264 266 260 256 255 256 255
177 212 244 258 255 220 156 269 255 220 239 243 141 261 264 280 296 294 296 285 278 281 275 266 266 256 245 263 261 262 265 262 259 256 249 251 252 260 266 261 260 259 262 256
206 232 260 260 259 114 173 256 262 211 220 211 206 223 255 298 304 303 305 299 297 291 280 262 250 222 238 263 264 272 280 283 275 259 248 254 254 256 259 263 262 260 262 262
187 218 252 216 142 187 228 261 224 222 223 226 235 250 266 275 288 306 317 315 313 303 297 290 259 220 252 267 278 295 301 298 291 282 261 264 247 256 259 259 265 269 267 273
202 220 246 195 206 229 216 231 238 228 240 228 245 260 271 276 280 291 297 301 301 291 300 310 300 249 260 283 298 309 309 303 301 297 280 269 250 249 261 253 257 269 269 272
253 262 254 245 244 254 233 230 241 234 239 232 242 252 267 277 282 288 293 295 301 303 300 303 302 293 279 289 300 303 301 306 309 303 303 301 288 264 256 251 256 266 267 271
254 274 292 274 237 233 240 240 243 253 245 233 233 249 255 268 277 283 291 297 300 289 284 291 300 298 304 305 299 297 298 303 306 306 305 316 312 300 284 270 266 264 261 255
236 236 225 258 258 224 222 236 236 246 270 265 235 248 261 264 268 274 284 291 296 294 293 297 303 304 309 309 297 288 298 305 304 307 307 309 315 325 326 315 314 305 298 288
241 248 239 261 269 237 223 234 239 233 239 258 260 244 250 268 271 278 287 291 283 282 285 291 296 300 305 308 301 287 288 294 295 298 297 300 304 310 318 327 327 319 312 304
241 240 259 251 248 242 236 241 243 247 249 245 251 255 253 268 276 281 280 278 278 282 289 289 294 296 301 304 299 294 292 291 295 288 291 293 299 305 305 309 316 320 316 311
247 233 236 246 246 244 231 223 237 259 264 267 256 249 250 256 267 274 280 286 290 293 294 295 296 299 307 305 301 296 294 297 295 294 295 300 307 308 304 302 306 314 324 319
259 255 234 232 235 238 231 225 232 246 248 246 248 254 259 260 269 280 286 282 278 282 286 287 288 295 298 294 295 296 291 301 310 307 307 311 307 304 302 303 307 311 311 312
223 241 238 242 239 239 234 232 227 232 233 235 241 250 261 268 278 281 282 278 269 273 278 275 279 292 291 284 279 285 292 297 304 311 303 294 290 288 290 297 305 308 308 313
232 237 232 227 229 234 241 238 231 228 232 238 240 239 242 243 255 268 277 286 289 291 286 275 276 286 282 278 273 279 286 289 291 287 287 285 289 289 291 292 292 296 309 315
241 237 236 233 227 223 229 234 234 232 234 227 229 238 245 249 252 262 270 274 275 283 288 283 294 296 280 274 283 276 277 279 285 289 289 290 295 293 287 285 287 291 299 307
249 244 239 240 236 225 230 234 231 233 231 221 228 242 256 260 259 258 258 258 253 253 267 276 274 272 269 268 271 263 265 271 276 283 287 283 282 284 285 285 285 287 289 291
253 250 247 244 248 244 235 228 222 230 235 221 222 234 248 259 257 249 249 269 270 257 262 272 269 267 264 262 261 256 259 265 269 273 278 280 283 285 286 285 286 285 284 286
254 243 244 242 238 251 249 233 225 230 235 236 237 238 246 258 258 255 248 250 264 271 268 255 255 265 270 267 247 245 252 260 267 270 271 272 273 278 280 281 279 281 282 282
255 244 242 238 235 245 263 246 231 227 231 236 238 238 241 246 242 247 271 263 252 262 264 254 264 272 274 268 253 248 251 256 263 268 270 270 269 269 273 276 277 277 279 283
253 251 248 245 230 238 261 265 251 242 240 245 244 240 238 250 260 245 248 269 272 270 259 265 273 276 272 261 253 255 257 258 261 265 269 271 272 272 271 273 277 281 280 281
242 241 233 221 226 240 248 259 267 264 260 263 263 256 242 230 240 257 255 259 271 279 273 275 279 278 274 260 256 259 261 263 264 265 262 265 267 267 269 271 270 271 275 275
239 235 232 228 229 236 234 234 247 254 253 270 281 270 260 255 250 254 258 261 266 278 275 268 273 273 260 254 258 264 265 274 280 276 268 264 264 263 265 267 267 265 267 269
244 239 237 250 248 230 222 225 236 244 242 247 268 263 256 259 259 260 262 267 271 266 265 268 268 259 252 252 260 266 267 267 265 262 263 265 265 261 260 262 263 264 264 265
Height
1494 1492 1493 1492 1491 1492 1492 1490 1490 1481 1478 1471 1471 1470 1468 1467 1467 1466 1465 1465 1464 1462 1461 1460 1459 1458 1458 1457 1457 1456 1456 1455 1454 1454 1453 1453 1452 1451 1451 1451 1451 1451 1451 1451
1495 1491 1491 1489 1485 1486 1485 1484 1483 1479 1475 1468 1468 1468 1466 1465 1464 1464 1463 1462 1460 1459 1457 1456 1455 1454 1454 1453 1453 1452 1452 1451 1451 1450 1449 1448 1447 1447 1447 1447 1447 1447 1447 1447
1497 1493 1489 1487 1480 1479 1479 1478 1477 1475 1469 1466 1466 1465 1463 1462 1462 1461 1460 1459 1457 1455 1454 1453 1452 1451 1449 1449 1448 1448 1448 1447 1447 1446 1445 1445 1444 1444 1444 1443 1442 1443 1442 1442
1499 1497 1494 1477 1472 1473 1473 1471 1470 1467 1464 1463 1463 1461 1460 1460 1459 1458 1457 1455 1453 1452 1451 1449 1448 1447 1446 1445 1444 1444 1443 1443 1443 1442 1442 1441 1441 1440 1440 1439 1438 1438 1438 1437
1501 1499 1488 1475 1470 1471 1472 1468 1465 1465 1462 1461 1461 1460 1458 1457 1457 1456 1454 1453 1451 1450 1448 1446 1445 1444 1443 1442 1441 1440 1439 1438 1438 1438 1438 1437 1437 1436 1435 1435 1434 1433 1433 1433
1500 1495 1486 1471 1467 1465 1469 1468 1460 1460 1459 1459 1459 1461 1456 1455 1454 1453 1451 1450 1448 1447 1445 1443 1442 1440 1439 1438 1437 1436 1435 1434 1434 1434 1434 1433 1433 1432 1431 1430 1430 1429 1429 1429
1496 1494 1480 1468 1465 1466 1472 1464 1457 1456 1456 1456 1456 1456 1454 1452 1451 1450 1449 1447 1446 1444 1442 1440 1439 1437 1436 1434 1433 1432 1432 1431 1431 1430 1430 1429 1429 1428 1427 1427 1426 1425 1425 1424
1493 1491 1477 1464 1465 1466 1462 1456 1455 1454 1454 1454 1452 1451 1451 1450 1449 1447 1446 1444 1443 1441 1439 1437 1436 1434 1432 1431 1430 1430 1428 1428 1427 1426 1426 1426 1425 1424 1424 1423 1422 1421 1420 1419
1477 1470 1461 1459 1458 1457 1456 1455 1454 1453 1452 1452 1450 1449 1448 1447 1446 1445 1443 1442 1440 1438 1436 1435 1433 1432 1430 1429 1428 1427 1426 1425 1424 1423 1423 1422 1421 1420 1420 1419 1418 1417 1416 1415
1471 1461 1457 1456 1455 1454 1454 1453 1452 1451 1450 1449 1448 1447 1446 1445 1444 1442 1441 1439 1438 1436 1434 1433 1431 1430 1429 1428 1426 1424 1423 1422 1421 1420 1419 1419 1418 1417 1416 1415 1414 1413 1412 1411
1466 1459 1455 1452 1451 1451 1450 1450 1449 1448 1448 1447 1446 1444 1444 1442 1441 1440 1439 1437 1436 1434 1432 1431 1429 1428 1427 1425 1424 1422 1421 1420 1419 1418 1417 1416 1415 1414 1413 1412 1411 1410 1409 1408
1458 1452 1452 1449 1448 1448 1447 1447 1446 1446 1445 1444 1443 1442 1441 1440 1439 1438 1436 1435 1433 1432 1430 1429 1427 1426 1424 1423 1422 1420 1418 1417 1416 1415 1414 1413 1412 1411 1410 1409 1408 1407 1406 1406
1450 1448 1448 1446 1446 1445 1444 1443 1443 1443 1442 1441 1440 1440 1438 1437 1436 1435 1433 1432 1430 1429 1428 1426 1425 1423 1422 1421 1419 1418 1417 1416 1415 1413 1412 1411 1410 1408 1407 1406 1405 1404 1403 1402
1446 1446 1444 1443 1442 1442 1441 1441 1440 1440 1440 1439 1438 1437 1436 1434 1433 1432 1430 1429 1428 1427 1425 1424 1422 1421 1420 1419 1417 1416 1415 1414 1413 1412 1410 1409 1408 1406 1405 1403 1401 1400 1400 1399
1442 1442 1441 1439 1439 1439 1438 1438 1437 1436 1436 1435 1435 1434 1432 1431 1430 1429 1428 1427 1426 1424 1423 1422 1420 1419 1418 1416 1415 1414 1413 1412 1411 1410 1409 1407 1406 1405 1403 1401 1400 1398 1397 1396
1438 1437 1436 1436 1435 1435 1435 1434 1434 1433 1433 1432 1431 1431 1430 1429 1427 1426 1425 1424 1423 1421 1420 1419 1418 1417 1416 1414 1413 1412 1411 1410 1409 1408 1407 1405 1404 1403 1401 1400 1398 1396 1395 1394
1434 1432 1432 1432 1431 1431 1431 1431 1430 1430 1429 1429 1428 1428 1427 1426 1425 1423 1423 1422 1420 1419 1418 1417 1416 1415 1414 1412 1411 1410 1409 1408 1407 1406 1405 1403 1402 1401 1399 1398 1396 1395 1393 1393
1429 1428 1428 1428 1427 1427 1427 1427 1427 1426 1426 1426 1425 1425 1424 1423 1421 1420 1420 1419 1417 1416 1415 1414 1414 1412 1411 1410 1409 1408 1407 1406 1405 1403 1402 1401 1400 1399 1397 1396 1394 1393 1392 1391
1424 1424 1424 1424 1424 1423 1423 1423 1423 1423 1423 1422 1422 1421 1421 1420 1419 1418 1416 1415 1414 1413 1412 1412 1411 1410 1409 1408 1406 1405 1404 1403 1402 1401 1400 1399 1398 1396 1395 1394 1392 1391 1390 1388
1420 1420 1420 1420 1420 1420 1419 1419 1419 1419 1419 1419 1418 1418 1417 1416 1415 1414 1413 1412 1411 1410 1409 1409 1408 1407 1406 1405 1404 1403 1402 1400 1399 1398 1397 1396 1395 1394 1392 1391 1390 1389 1387 1386
1417 1416 1416 1416 1416 1416 1416 1416 1416 1415 1415 1415 1415 1414 1413 1413 1412 1411 1409 1408 1408 1407 1406 1406 1405 1404 1403 1402 1401 1400 1399 1398 1396 1395 1394 1393 1392 1391 1390 1388 1387 1386 1385 1384
1414 1413 1413 1413 1412 1412 1412 1412 1412 1412 1411 1411 1411 1410 1409 1409 1408 1407 1406 1406 1405 1404 1403 1402 1402 1401 1400 1399 1398 1397 1395 1394 1393 1392 1391 1390 1389 1388 1387 1386 1385 1384 1383 1382
1412 1411 1411 1410 1410 1409 1409 1409 1409 1408 1408 1407 1407 1406 1405 1405 1404 1403 1402 1402 1401 1401 1400 1399 1398 1398 1397 1395 1394 1393 1392 1391 1390 1389 1388 1388 1387 1386 1384 1383 1382 1381 1380 1380
1409 1409 1408 1408 1407 1406 1405 1405 1405 1405 1404 1404 1403 1403 1402 1401 1400 1400 1399 1398 1398 1397 1396 1396 1395 1394 1393 1392 1391 1390 1389 1388 1387 1387 1386 1385 1384 1383 1382 1381 1380 1379 1378 1378
1406 1405 1405 1404 1403 1403 1403 1402 1402 1401 1401 1400 1400 1399 1399 1398 1397 1397 1396 1395 1394 1393 1393 1392 1392 1391 1390 1389 1388 1387 1386 1386 1385 1384 1383 1382 1382 1381 1380 1379 1378 1377 1376 1376
1402 1401 1401 1401 1401 1400 1399 1399 1398 1398 1397 1396 1396 1395 1395 1394 1394 1393 1392 1391 1391 1390 1389 1389 1388 1388 1387 1386 1385 1385 1384 1383 1382 1382 1381 1380 1379 1379 1378 1377 1376 1375 1375 1374
1398 1398 1397 1397 1397 1396 1396 1395 1395 1394 1393 1393 1392 1392 1392 1391 1390 1390 1389 1388 1387 1387 1386 1386 1385 1385 1384 1384 1383 1382 1381 1381 1380 1379 1379 1378 1378 1377 1376 1375 1375 1374 1373 1373